When you browse on this site, cookies collect data to enhance your experience and personalize the content and advertising you see.
Visit our Privacy Policy to learn more. By continuing to use the site, you agree to this use of cookies and data.
  • In Sweden
  • List of Countries
  • For 7 days
  • Water Temperature
  • Weather Map
  • Weather Widgets
  • user-avatar
    Login

    Hourly Weather Agres

    Today, 5 June, Friday

    Time Temperature Precipitation Wind Pressure Humidity
    00:00 +17°C° 0 mm 4 mps 714 mmHg 51%
    01:00 +17°C° 0 mm 3 mps 714 mmHg 54%
    02:00 +16°C° 0 mm 3 mps 714 mmHg 57%
    03:00 +15°C° 0 mm 2 mps 714 mmHg 60%
    04:00 +16°C° 0 mm 2 mps 715 mmHg 59%
    05:00 +16°C° 0 mm 3 mps 715 mmHg 57%
    06:00 +17°C° 0 mm 3 mps 715 mmHg 56%
    07:00 +19°C° 0 mm 5 mps 716 mmHg 50%
    08:00 +21°C° 0 mm 6 mps 716 mmHg 43%
    09:00 +23°C° 0 mm 7 mps 717 mmHg 36%
    10:00 +24°C° 0 mm 7 mps 717 mmHg 34%
    11:00 +27°C° 0 mm 7 mps 717 mmHg 31%
    12:00 +28°C° 0 mm 7 mps 717 mmHg 28%
    13:00 +29°C° 0 mm 7 mps 717 mmHg 27%
    14:00 +29°C° 0 mm 7 mps 717 mmHg 26%
    15:00 +30°C° 0 mm 6 mps 717 mmHg 25%
    16:00 +29°C° 0 mm 6 mps 716 mmHg 28%
    17:00 +29°C° 0 mm 5 mps 716 mmHg 30%
    18:00 +28°C° 0 mm 4 mps 716 mmHg 32%
    19:00 +26°C° 0 mm 4 mps 716 mmHg 39%
    20:00 +24°C° 0 mm 3 mps 716 mmHg 45%
    21:00 +23°C° 0 mm 2 mps 717 mmHg 51%
    22:00 +21°C° 0 mm 2 mps 717 mmHg 50%
    23:00 +21°C° 0 mm 2 mps 717 mmHg 50%

    Tomorrow, 6 June, Saturday

    Time Temperature Precipitation Wind Pressure Humidity
    00:00 +21°C° 0 mm 2 mps 717 mmHg 49%
    01:00 +21°C° 0 mm 3 mps 716 mmHg 49%
    02:00 +20°C° 0 mm 3 mps 716 mmHg 49%
    03:00 +20°C° 0 mm 3 mps 716 mmHg 49%
    04:00 +21°C° 0 mm 3 mps 716 mmHg 48%
    05:00 +21°C° 0 mm 2 mps 716 mmHg 47%
    06:00 +21°C° 0 mm 2 mps 716 mmHg 46%
    07:00 +24°C° 0 mm 2 mps 717 mmHg 40%
    08:00 +26°C° 0 mm 2 mps 717 mmHg 35%
    09:00 +27°C° 0 mm 2 mps 717 mmHg 29%
    10:00 +28°C° 0 mm 3 mps 717 mmHg 27%
    11:00 +30°C° 0 mm 4 mps 717 mmHg 25%
    12:00 +32°C° 0 mm 4 mps 717 mmHg 22%
    13:00 +32°C° 0 mm 4 mps 716 mmHg 22%
    14:00 +32°C° 0 mm 5 mps 716 mmHg 23%
    15:00 +33°C° 0 mm 5 mps 715 mmHg 23%
    16:00 +32°C° 0 mm 5 mps 715 mmHg 26%
    17:00 +30°C° 0 mm 5 mps 714 mmHg 30%
    18:00 +29°C° 0 mm 4 mps 714 mmHg 33%
    19:00 +28°C° 0 mm 4 mps 714 mmHg 36%
    20:00 +26°C° 0 mm 3 mps 714 mmHg 40%
    21:00 +25°C° 0 mm 2 mps 714 mmHg 43%
    22:00 +25°C° 0 mm 2 mps 714 mmHg 42%
    23:00 +24°C° 0 mm 3 mps 714 mmHg 40%

    Day after tomorrow, 7 June, Sunday

    Time Temperature Precipitation Wind Pressure Humidity
    00:00 +24°C° 0 mm 3 mps 713 mmHg 38%
    01:00 +22°C° 0 mm 3 mps 713 mmHg 39%
    02:00 +22°C° 0 mm 3 mps 713 mmHg 40%
    03:00 +21°C° 0 mm 2 mps 713 mmHg 41%
    04:00 +21°C° 0 mm 2 mps 713 mmHg 41%
    05:00 +23°C° 0 mm 2 mps 714 mmHg 41%
    06:00 +23°C° 0 mm 2 mps 714 mmHg 41%
    07:00 +24°C° 0 mm 2 mps 714 mmHg 38%
    08:00 +25°C° 0 mm 3 mps 714 mmHg 35%
    09:00 +26°C° 0 mm 4 mps 715 mmHg 32%
    10:00 +27°C° 0 mm 4 mps 715 mmHg 31%
    11:00 +28°C° 0 mm 5 mps 715 mmHg 29%
    12:00 +29°C° 0 mm 6 mps 715 mmHg 27%
    13:00 +29°C° 0 mm 6 mps 714 mmHg 29%
    14:00 +28°C° 0 mm 6 mps 714 mmHg 30%
    15:00 +28°C° 0 mm 6 mps 714 mmHg 32%
    16:00 +28°C° 0 mm 6 mps 714 mmHg 33%
    17:00 +27°C° 0 mm 6 mps 714 mmHg 35%
    18:00 +26°C° 0 mm 5 mps 714 mmHg 36%
    19:00 +25°C° 0.2 mm 5 mps 714 mmHg 45%
    20:00 +22°C° 0.2 mm 4 mps 714 mmHg 53%
    21:00 +20°C° 0.2 mm 3 mps 715 mmHg 62%
    22:00 +19°C° 0.6 mm 3 mps 715 mmHg 70%
    23:00 +19°C° 0.6 mm 3 mps 715 mmHg 79%

    8 June, Monday

    Time Temperature Precipitation Wind Pressure Humidity
    00:00 +18°C° 0.6 mm 3 mps 715 mmHg 87%
    01:00 +17°C° 0.1 mm 3 mps 715 mmHg 88%
    02:00 +17°C° 0.1 mm 3 mps 715 mmHg 89%
    03:00 +17°C° 0.1 mm 2 mps 715 mmHg 90%
    04:00 +17°C° 0 mm 2 mps 715 mmHg 88%
    05:00 +17°C° 0 mm 2 mps 715 mmHg 86%
    06:00 +17°C° 0 mm 2 mps 716 mmHg 85%
    07:00 +18°C° 0.1 mm 2 mps 716 mmHg 80%
    08:00 +19°C° 0.1 mm 2 mps 716 mmHg 74%
    09:00 +19°C° 0.1 mm 2 mps 717 mmHg 69%
    10:00 +20°C° 0.5 mm 2 mps 717 mmHg 66%
    11:00 +21°C° 0.5 mm 2 mps 717 mmHg 64%
    12:00 +22°C° 0.5 mm 3 mps 717 mmHg 61%
    13:00 +22°C° 0.7 mm 3 mps 717 mmHg 60%
    14:00 +22°C° 0.7 mm 3 mps 717 mmHg 60%
    15:00 +22°C° 0.7 mm 3 mps 717 mmHg 59%
    16:00 +21°C° 1.2 mm 3 mps 717 mmHg 64%
    17:00 +20°C° 1.2 mm 2 mps 717 mmHg 68%
    18:00 +19°C° 1.2 mm 2 mps 717 mmHg 73%
    19:00 +19°C° 0.5 mm 2 mps 717 mmHg 77%
    20:00 +19°C° 0.5 mm 1 mps 718 mmHg 80%
    21:00 +19°C° 0.5 mm 1 mps 718 mmHg 84%
    22:00 +18°C° 0.1 mm 1 mps 718 mmHg 85%
    23:00 +18°C° 0.1 mm 1 mps 718 mmHg 87%

    9 June, Tuesday

    Time Temperature Precipitation Wind Pressure Humidity
    00:00 +18°C° 0.1 mm 1 mps 718 mmHg 88%
    01:00 +18°C° 0 mm 1 mps 718 mmHg 89%
    02:00 +18°C° 0 mm 1 mps 718 mmHg 89%
    03:00 +16°C° 0 mm 1 mps 718 mmHg 90%
    04:00 +18°C° 0 mm 1 mps 718 mmHg 87%
    05:00 +16°C° 0 mm 0 mps 718 mmHg 85%
    06:00 +16°C° 0 mm 0 mps 719 mmHg 82%
    07:00 +19°C° 0 mm 1 mps 719 mmHg 77%
    08:00 +20°C° 0 mm 1 mps 719 mmHg 71%
    09:00 +21°C° 0 mm 1 mps 719 mmHg 66%
    10:00 +21°C° 0.2 mm 2 mps 720 mmHg 63%
    11:00 +23°C° 0.2 mm 2 mps 720 mmHg 61%
    12:00 +23°C° 0.2 mm 2 mps 720 mmHg 58%
    13:00 +24°C° 0.2 mm 3 mps 720 mmHg 56%
    14:00 +24°C° 0.2 mm 3 mps 719 mmHg 54%
    15:00 +25°C° 0.2 mm 3 mps 719 mmHg 52%
    16:00 +24°C° 0.2 mm 3 mps 719 mmHg 56%
    17:00 +22°C° 0.2 mm 3 mps 719 mmHg 60%
    18:00 +23°C° 0.2 mm 2 mps 719 mmHg 63%
    19:00 +21°C° 0.5 mm 2 mps 719 mmHg 70%
    20:00 +19°C° 0.5 mm 2 mps 719 mmHg 77%
    21:00 +19°C° 0.5 mm 1 mps 720 mmHg 84%
    22:00 +19°C° 0 mm 1 mps 720 mmHg 86%
    23:00 +19°C° 0 mm 1 mps 720 mmHg 88%

    10 June, Wednesday

    Time Temperature Precipitation Wind Pressure Humidity
    00:00 +18°C° 0 mm 1 mps 720 mmHg 90%
    01:00 +18°C° 0 mm 1 mps 720 mmHg 90%
    02:00 +16°C° 0 mm 0 mps 719 mmHg 91%
    03:00 +16°C° 0 mm 0 mps 719 mmHg 91%
    04:00 +16°C° 0 mm 0 mps 719 mmHg 89%
    05:00 +18°C° 0 mm 1 mps 719 mmHg 87%
    06:00 +19°C° 0 mm 1 mps 720 mmHg 84%
    07:00 +19°C° 0 mm 2 mps 720 mmHg 77%
    08:00 +20°C° 0 mm 2 mps 720 mmHg 69%
    09:00 +21°C° 0 mm 3 mps 720 mmHg 61%
    10:00 +22°C° 0 mm 3 mps 720 mmHg 56%
    11:00 +23°C° 0 mm 4 mps 720 mmHg 51%
    12:00 +25°C° 0 mm 5 mps 720 mmHg 46%
    13:00 +25°C° 0 mm 5 mps 720 mmHg 48%
    14:00 +25°C° 0 mm 5 mps 719 mmHg 50%
    15:00 +23°C° 0 mm 5 mps 719 mmHg 52%
    16:00 +23°C° 0 mm 5 mps 719 mmHg 55%
    17:00 +22°C° 0 mm 5 mps 719 mmHg 58%
    18:00 +21°C° 0 mm 4 mps 718 mmHg 60%
    19:00 +20°C° 0 mm 4 mps 719 mmHg 68%
    20:00 +19°C° 0 mm 3 mps 719 mmHg 76%
    21:00 +18°C° 0 mm 3 mps 719 mmHg 84%
    22:00 +18°C° 0 mm 2 mps 719 mmHg 85%
    23:00 +17°C° 0 mm 2 mps 719 mmHg 87%
    Show more